TimeMST,TemperatureF,Dew PointF,Humidity,Sea Level PressureIn,VisibilityMPH,Wind Direction,Wind SpeedMPH,Gust SpeedMPH,PrecipitationIn,Events,Conditions,WindDirDegrees,DateUTC
12:52 AM,3.9,-0.0,84,30.18,9.0,Calm,Calm,-,N/A,,Clear,0,2013-01-05 07:52:00
1:52 AM,3.9,-0.0,84,30.18,10.0,Calm,Calm,-,N/A,,Clear,0,2013-01-05 08:52:00
2:52 AM,1.0,-4.0,79,30.21,10.0,Calm,Calm,-,N/A,,Clear,0,2013-01-05 09:52:00
3:52 AM,-0.0,-5.1,79,30.22,7.0,Calm,Calm,-,N/A,,Clear,0,2013-01-05 10:52:00
4:52 AM,-0.9,-5.1,83,30.26,10.0,Calm,Calm,-,N/A,,Clear,0,2013-01-05 11:52:00
5:52 AM,-0.0,-5.1,79,30.26,10.0,Calm,Calm,-,N/A,,Clear,0,2013-01-05 12:52:00
6:52 AM,8.1,3.9,83,30.26,10.0,WSW,5.8,-,N/A,,Clear,250,2013-01-05 13:52:00
7:52 AM,12.9,7.0,77,30.29,10.0,West,3.5,-,N/A,,Clear,260,2013-01-05 14:52:00
8:52 AM,18.0,12.9,81,30.30,10.0,West,4.6,-,N/A,,Clear,260,2013-01-05 15:52:00
9:52 AM,26.1,15.1,63,30.30,10.0,West,8.1,-,N/A,,Clear,270,2013-01-05 16:52:00
10:52 AM,30.0,18.0,61,30.29,10.0,West,10.4,-,N/A,,Clear,270,2013-01-05 17:52:00
11:52 AM,30.9,19.9,64,30.29,10.0,NW,9.2,-,N/A,,Clear,310,2013-01-05 18:52:00
12:52 PM,30.9,19.9,64,30.29,10.0,WNW,8.1,-,N/A,,Clear,300,2013-01-05 19:52:00
1:52 PM,32.0,21.0,64,30.30,10.0,WNW,6.9,-,N/A,,Clear,290,2013-01-05 20:52:00
2:52 PM,30.9,21.9,69,30.32,10.0,WNW,5.8,-,N/A,,Clear,300,2013-01-05 21:52:00
3:52 PM,27.0,19.9,75,30.35,10.0,SW,9.2,-,N/A,,Clear,220,2013-01-05 22:52:00
4:52 PM,19.9,15.1,81,30.39,10.0,SSW,3.5,-,N/A,,Clear,210,2013-01-05 23:52:00
5:52 PM,17.1,12.0,81,30.41,10.0,SSW,5.8,-,N/A,,Clear,210,2013-01-06 00:52:00
6:52 PM,16.0,12.0,84,30.39,10.0,Calm,Calm,-,N/A,,Clear,0,2013-01-06 01:52:00
7:52 PM,17.1,12.0,81,30.38,10.0,West,4.6,-,N/A,,Clear,280,2013-01-06 02:52:00
8:52 PM,12.9,9.0,84,30.38,10.0,SW,4.6,-,N/A,,Clear,220,2013-01-06 03:52:00
9:52 PM,14.0,8.1,77,30.36,10.0,WSW,3.5,-,N/A,,Clear,240,2013-01-06 04:52:00
10:52 PM,15.1,10.0,80,30.35,10.0,WSW,4.6,-,N/A,,Clear,250,2013-01-06 05:52:00
11:52 PM,19.0,12.9,77,30.34,10.0,WSW,5.8,-,N/A,,Clear,240,2013-01-06 06:52:00